Wind_Speed
20 15 11 9 10 12 14 17 20 21 22 24 25 25 26 28 31 34 36 35 35 36 38 40 41 41 41 41 42 43 43 43 42 42 42 42 43 43 43 43 43 42 42 43 45 46 47 48 47 47 45 44 41 39 36 34 32 31 29 27 26 25
18 15 11 9 9 10 12 15 19 21 24 26 25 25 27 28 31 35 38 38 37 38 40 42 44 44 44 44 45 45 45 44 44 44 44 44 45 45 44 44 44 43 42 42 44 45 47 48 48 48 47 45 43 40 38 36 35 33 31 29 27 26
13 12 11 11 11 13 17 19 21 22 24 26 26 27 28 30 32 34 36 38 38 39 41 43 45 46 47 47 47 47 46 46 46 46 46 46 46 46 45 45 44 44 43 42 42 43 45 47 48 49 48 46 44 42 40 38 37 35 32 30 28 27
13 11 10 11 14 18 23 26 28 27 26 27 28 29 31 32 32 32 33 36 38 40 42 45 47 48 50 50 50 50 48 48 48 48 48 48 48 47 46 46 46 45 44 43 42 42 44 46 48 49 49 48 46 44 42 40 39 36 34 32 30 28
20 18 17 19 22 24 26 29 32 30 28 28 29 30 31 33 34 34 35 38 39 41 43 46 49 51 52 53 53 52 50 49 49 50 50 50 49 48 47 47 47 46 45 44 42 42 43 45 47 49 50 49 48 46 44 42 40 38 35 33 30 28
27 26 27 28 29 29 31 33 34 33 30 29 30 31 32 34 36 37 39 41 42 44 46 49 51 53 54 55 55 54 52 51 51 52 52 51 51 50 49 49 48 48 47 45 43 43 43 44 46 49 50 50 48 47 45 43 41 39 36 33 31 29
33 33 33 32 33 35 38 39 38 36 35 35 36 37 36 34 36 39 41 43 45 48 49 50 52 55 56 56 56 56 55 54 53 53 53 53 53 52 51 50 50 49 48 47 46 44 43 43 45 48 50 50 49 47 45 44 42 40 37 34 32 31
33 34 34 35 36 37 38 39 39 40 41 42 41 40 37 35 36 39 42 46 49 51 53 53 54 56 57 57 58 58 58 57 56 56 55 55 54 54 53 53 52 51 50 49 48 45 43 43 44 47 49 49 49 47 46 45 43 40 38 36 34 32
28 30 31 31 33 34 34 34 36 40 43 45 44 42 41 41 42 44 48 51 54 55 56 56 55 55 56 58 59 59 59 59 59 58 57 56 56 56 55 54 54 52 51 50 48 46 44 43 44 45 47 48 48 48 48 47 44 42 39 38 35 33
31 32 31 30 30 31 31 31 32 35 40 43 45 46 47 48 49 51 54 55 56 58 59 58 55 54 56 58 59 59 60 60 60 59 58 57 57 57 56 55 54 53 52 51 49 47 45 44 44 45 46 48 49 49 49 48 46 44 41 39 36 33
36 35 35 35 33 31 32 32 32 33 36 38 40 42 44 47 50 52 55 57 56 56 56 57 54 53 55 58 59 59 59 59 60 59 58 58 57 57 56 55 54 53 52 51 48 47 46 45 45 45 46 48 49 51 51 49 46 44 42 39 36 34
38 38 39 39 39 38 37 36 36 36 36 37 38 40 41 44 47 50 53 55 56 54 53 54 55 54 55 56 57 58 58 58 58 58 58 57 56 56 55 54 54 53 52 50 49 48 47 47 47 46 46 47 49 50 51 49 47 44 42 39 37 35
39 41 41 41 42 42 42 41 39 38 38 38 39 41 42 44 46 48 51 52 51 52 53 55 56 55 55 54 55 56 56 56 57 57 57 56 56 55 54 54 54 53 52 50 49 48 48 48 48 47 46 47 49 50 51 49 47 45 43 40 38 36
40 41 42 43 43 43 43 44 44 43 42 41 40 40 42 45 46 48 51 50 48 49 52 55 56 55 54 53 53 54 55 56 56 57 56 56 55 54 53 53 53 52 51 49 49 48 48 48 48 47 47 47 49 50 50 49 47 46 44 41 39 36
40 41 43 43 44 44 44 45 45 46 45 44 42 41 40 40 41 42 45 46 46 46 48 51 54 54 53 52 52 53 55 56 56 56 56 55 54 52 52 52 51 51 50 49 49 48 47 47 48 47 46 47 48 49 50 50 48 46 44 41 38 36
40 42 43 44 45 45 45 46 46 47 46 46 44 43 43 39 35 35 38 40 42 44 44 46 49 51 52 52 52 53 54 55 55 55 54 53 52 51 51 50 50 50 50 49 48 47 47 47 47 46 46 46 48 50 50 50 48 45 42 40 38 36
40 43 44 44 45 46 46 46 47 47 47 47 46 45 45 44 39 36 35 36 38 40 42 43 44 47 49 50 51 52 53 54 53 53 52 52 52 51 49 49 49 49 49 48 47 46 47 48 47 45 45 47 49 51 51 50 48 45 42 40 38 36
38 41 43 43 44 45 46 46 46 47 47 47 47 46 46 45 43 40 38 35 35 36 38 39 41 43 45 47 49 50 51 51 51 50 50 50 50 49 48 48 48 48 48 47 46 46 47 47 46 45 46 48 50 52 52 51 48 46 43 40 38 36
38 40 41 43 44 44 45 46 45 46 47 46 46 45 45 45 45 43 41 37 34 33 34 35 36 39 41 43 46 48 49 49 48 49 49 49 49 48 48 48 47 47 46 46 46 46 47 47 45 45 47 49 51 53 54 51 48 46 43 40 37 36
40 41 41 43 44 44 45 46 45 45 46 46 45 44 43 44 46 46 45 41 36 31 30 31 32 34 36 39 42 44 46 47 47 48 47 47 48 47 46 46 45 45 45 45 45 45 45 46 45 45 47 49 52 54 54 50 48 45 42 39 38 36
41 42 43 44 45 45 46 46 46 46 46 45 44 42 41 42 45 46 46 44 40 34 31 28 28 29 32 35 38 40 43 44 45 46 46 46 46 45 44 44 43 44 44 44 44 44 44 45 45 45 47 49 52 55 53 49 48 46 43 41 39 37
41 43 45 45 46 47 47 47 46 46 46 46 44 42 40 39 41 43 45 45 42 39 35 30 28 27 28 30 33 36 39 41 43 44 45 44 44 43 43 43 42 42 42 42 43 43 44 45 45 45 48 49 51 54 52 49 48 47 44 41 39 38
41 43 44 45 46 47 47 47 47 46 46 46 46 44 40 39 39 39 41 43 43 41 38 35 31 28 27 27 30 33 36 38 40 42 43 43 43 42 42 42 42 41 41 41 42 43 44 45 45 45 47 48 50 51 51 49 47 46 43 40 39 38
43 44 45 45 46 47 47 47 47 46 46 46 46 45 43 41 40 38 38 40 41 41 40 38 35 31 28 27 28 31 34 36 38 40 41 41 42 41 41 41 41 41 41 41 42 43 45 46 45 45 46 48 49 50 51 49 45 44 42 40 39 38
44 46 46 47 47 47 47 47 47 47 47 47 46 46 45 44 42 40 38 37 38 39 40 40 39 35 30 27 27 28 32 34 36 38 39 40 40 40 40 41 41 41 41 41 42 44 46 46 45 44 46 47 47 48 50 48 45 43 42 40 39 38
45 47 48 48 47 47 47 47 48 49 48 47 46 45 46 46 45 42 40 38 37 37 37 38 39 38 34 29 27 27 29 32 35 36 37 38 39 40 40 41 41 41 41 42 43 45 46 45 44 44 45 46 46 45 47 48 45 43 42 40 39 37
46 50 52 51 49 48 47 47 48 50 51 49 47 46 46 46 46 45 43 41 38 37 36 35 37 38 37 34 30 28 28 31 33 36 38 39 40 40 41 41 41 40 41 42 43 45 45 44 44 43 44 46 44 41 42 45 44 42 42 41 39 37
48 51 54 55 54 51 50 48 48 49 51 51 49 48 46 45 47 48 46 44 40 38 37 35 35 36 37 36 34 31 29 30 32 35 38 39 40 41 41 41 40 40 42 43 44 45 45 44 43 43 44 47 45 40 37 39 40 41 42 41 38 35
47 50 54 57 58 56 54 52 50 49 50 50 50 50 49 47 46 48 48 46 42 39 38 37 36 36 37 37 36 33 32 32 33 35 38 40 41 41 41 41 42 42 43 45 45 45 45 44 43 44 45 48 48 43 37 36 37 38 40 39 36 34
49 50 52 56 58 59 58 56 54 52 50 49 50 51 51 50 47 47 48 48 45 41 39 38 38 38 37 37 37 36 36 36 36 37 39 41 41 42 42 42 42 42 42 44 45 45 46 45 45 46 48 50 52 49 43 39 37 37 37 36 34 32
52 52 54 56 58 58 59 59 59 56 53 51 50 50 52 52 50 48 48 48 47 44 42 40 39 39 39 38 38 39 39 39 38 39 40 41 41 41 42 42 42 41 41 42 43 44 45 45 45 47 47 49 51 52 50 45 41 37 35 34 33 32
51 52 56 59 59 58 58 59 60 59 57 54 53 52 52 52 51 50 48 47 47 46 44 42 42 41 40 40 39 40 40 40 40 40 40 41 41 41 42 42 42 42 41 42 43 43 43 42 42 43 46 48 50 52 51 48 44 40 37 36 35 33
53 54 58 61 60 59 59 59 59 60 59 56 54 52 51 49 48 49 48 46 46 46 44 43 44 43 41 40 40 40 40 40 41 41 41 41 42 42 42 43 43 43 43 43 43 42 41 41 40 41 44 47 50 52 51 49 46 43 40 40 38 34
56 58 60 61 61 61 62 62 61 59 58 56 53 50 49 47 44 45 46 45 44 43 42 42 44 44 43 41 40 41 41 41 41 41 41 41 42 43 43 43 44 44 45 45 43 41 41 41 40 39 41 44 49 50 49 48 47 44 42 41 38 32
57 59 60 61 62 63 64 65 64 60 56 53 50 47 46 44 41 40 42 42 40 40 40 40 42 44 44 43 42 41 42 42 43 43 42 41 41 42 43 43 44 44 44 45 44 42 41 39 38 37 38 41 46 47 46 46 45 44 42 41 37 31
57 60 61 61 61 62 64 66 66 60 52 49 46 42 39 38 36 36 38 38 37 37 38 39 40 42 43 44 43 42 42 43 43 43 42 41 41 40 41 42 42 42 42 41 40 40 40 39 37 36 37 40 44 46 46 44 42 40 39 38 34 31
57 60 60 59 58 59 61 63 63 56 49 44 40 34 31 33 34 36 39 40 39 38 38 39 40 40 41 42 42 42 42 42 42 42 42 42 42 41 41 41 39 38 37 37 37 37 37 37 37 36 35 39 44 46 45 43 40 38 37 36 32 31
57 58 57 55 53 54 56 59 57 51 45 39 32 30 34 37 38 39 40 39 38 36 36 37 39 39 40 40 41 41 41 41 41 42 42 41 41 40 40 39 37 35 33 32 33 34 34 34 36 35 35 39 44 45 44 44 43 42 40 38 35 34
Wind_Direction
341 332 321 297 273 268 268 265 264 263 263 262 260 260 263 263 260 254 248 245 243 242 241 240 239 237 236 235 236 237 237 237 237 237 238 238 239 241 242 243 243 240 238 237 237 236 234 233 233 232 231 231 230 231 231 232 233 234 236 239 242 246
355 354 347 326 310 301 292 284 278 273 270 268 266 265 264 263 261 255 250 247 245 245 243 242 241 240 239 238 237 237 236 236 236 236 237 238 239 240 241 242 243 242 239 237 237 236 235 234 233 232 231 230 230 230 230 231 232 233 235 237 240 244
341 346 344 338 334 327 318 306 293 284 279 276 271 267 265 263 262 258 253 249 248 247 245 243 243 242 242 241 241 240 239 239 238 238 238 238 239 240 241 242 243 243 241 238 237 237 236 235 234 233 232 231 230 230 229 230 231 232 234 235 238 243
324 325 326 330 329 327 324 313 299 288 285 284 276 269 267 265 263 262 259 254 251 250 248 245 245 245 244 243 242 241 240 240 240 239 240 240 239 240 241 242 244 245 243 240 237 236 236 236 235 234 233 231 231 230 229 230 230 231 232 233 237 242
308 306 305 306 309 314 318 315 302 289 284 284 280 278 276 271 266 264 261 257 255 254 251 248 247 246 245 244 243 241 240 239 239 240 241 241 241 241 241 243 244 245 245 242 239 237 236 236 235 234 233 232 231 231 231 230 230 231 232 234 238 242
310 308 304 299 299 304 312 313 303 290 283 283 282 283 284 282 276 270 263 260 259 257 254 252 250 248 247 245 244 242 241 240 240 240 242 242 243 243 243 244 245 245 245 243 241 238 236 235 235 234 233 232 232 232 232 231 231 232 233 235 238 241
325 323 319 315 310 309 312 311 304 292 286 286 286 283 282 284 284 280 274 268 264 259 257 255 254 252 250 248 246 244 243 242 241 242 242 243 244 244 244 244 245 245 245 244 242 239 236 235 235 234 233 232 232 232 232 232 232 232 233 235 237 239
324 324 323 323 322 321 320 315 308 299 292 290 288 284 282 284 286 285 284 280 272 265 260 257 256 255 254 252 249 247 245 244 243 243 243 244 245 245 245 245 245 245 246 246 244 242 239 236 235 235 234 233 232 232 231 231 231 231 232 234 236 238
342 338 332 326 323 322 321 317 311 305 301 297 294 292 293 294 292 290 289 286 279 270 263 259 258 259 258 256 252 249 247 246 245 244 244 244 245 245 245 245 245 246 246 246 245 243 241 238 235 235 234 233 233 232 231 230 229 229 230 232 234 236
0 358 353 346 336 327 322 318 312 306 303 301 300 300 300 299 297 294 292 287 280 273 266 261 261 262 261 257 252 249 248 247 246 246 246 245 245 246 246 246 246 246 246 245 244 243 242 239 236 234 234 233 232 232 231 229 228 229 230 231 233 235
358 357 357 355 351 344 336 330 323 317 309 301 298 297 298 299 299 296 293 288 283 279 271 264 263 263 259 256 252 250 249 248 248 247 247 247 247 247 247 247 246 246 245 244 243 242 242 240 237 235 233 233 232 231 230 229 228 229 230 231 233 234
357 357 355 355 353 351 348 342 336 331 322 311 302 296 295 298 297 295 293 290 287 283 275 267 266 264 259 256 254 251 250 249 248 247 247 248 248 247 247 246 245 245 244 243 243 242 242 240 238 235 233 233 233 232 230 229 229 229 230 231 232 234
357 356 355 354 353 352 351 347 342 337 331 323 315 305 298 295 290 288 289 290 289 285 276 269 266 264 261 258 255 252 250 249 248 247 247 247 247 246 246 245 244 243 243 243 242 242 242 240 238 235 232 232 232 232 230 230 230 230 230 231 232 233
353 352 351 350 350 351 351 349 345 341 338 334 329 321 308 297 290 289 289 289 289 284 278 272 267 263 261 259 255 252 249 247 247 246 245 245 245 245 244 243 243 242 242 242 242 241 241 241 238 235 233 232 232 231 230 230 230 230 230 231 231 232
348 347 347 346 346 347 347 346 344 342 341 341 340 338 328 311 298 295 295 293 289 283 279 274 267 263 262 258 254 251 248 245 245 244 244 244 243 243 243 242 242 241 240 240 240 241 241 240 238 235 233 233 232 231 229 229 229 230 230 230 231 232
344 343 342 342 341 341 342 342 342 340 340 342 343 346 345 335 318 307 304 301 293 286 281 276 269 265 262 257 252 250 246 245 244 244 243 243 241 241 242 241 241 240 240 240 240 240 240 239 237 234 233 233 232 230 229 228 228 228 229 229 230 231
341 339 339 339 338 338 338 338 339 337 337 340 342 344 347 346 339 331 323 312 300 290 284 278 273 267 262 256 252 249 246 245 244 243 243 242 241 241 242 241 240 239 239 239 239 239 238 237 236 233 232 232 231 230 228 227 226 226 227 228 228 229
338 337 337 336 336 336 336 336 336 335 335 337 338 340 343 346 346 344 338 327 314 300 289 282 276 269 263 257 253 249 247 246 245 244 243 242 241 240 240 240 240 239 239 239 239 238 237 236 234 232 231 231 230 229 227 225 224 225 225 226 227 226
335 336 335 334 334 335 335 335 335 333 333 334 335 336 338 342 345 345 343 338 328 314 300 290 282 274 267 262 257 253 250 248 246 245 243 241 240 239 239 239 238 238 239 239 239 237 236 235 233 230 229 229 229 229 227 223 222 223 224 225 225 225
333 334 333 332 332 334 335 334 333 332 331 332 333 333 333 334 337 341 342 341 336 325 310 299 290 281 272 266 261 257 255 252 249 246 244 242 241 240 240 239 238 238 238 239 239 239 238 237 234 230 229 228 228 229 228 224 222 223 223 223 223 224
331 330 331 331 331 332 333 332 332 331 330 329 329 330 330 328 328 332 335 337 337 332 321 309 299 288 278 271 266 262 258 254 251 248 245 242 241 241 240 239 238 238 239 238 239 239 238 238 234 230 229 227 227 229 228 224 222 222 222 222 222 223
329 329 329 330 330 330 330 330 329 329 329 328 327 326 326 325 324 325 326 329 333 334 330 322 310 299 290 281 274 266 260 256 252 248 245 242 241 239 238 238 237 238 239 238 238 238 237 236 233 230 228 225 226 230 228 223 222 223 222 222 223 223
328 327 327 327 328 327 328 328 326 325 325 325 324 324 323 320 318 319 318 320 325 329 331 328 321 312 303 292 279 269 262 257 252 249 246 243 240 238 236 236 236 236 237 238 238 238 236 236 233 230 228 224 223 228 229 224 223 224 223 223 223 223
327 327 325 325 326 326 326 326 323 322 321 320 321 322 320 315 312 312 312 312 315 320 324 326 324 319 310 298 284 272 265 259 254 251 247 244 241 238 237 236 235 235 235 236 236 236 235 234 231 229 227 223 220 225 229 227 224 226 226 224 223 222
326 327 325 325 325 325 325 324 321 319 317 316 317 319 317 314 309 306 305 305 306 309 313 317 319 317 311 303 292 278 268 261 256 251 247 244 242 239 237 237 235 234 234 235 235 235 234 233 230 227 225 222 219 221 228 229 225 225 226 225 224 223
323 324 324 324 325 325 324 324 322 318 315 314 315 314 312 312 309 303 299 298 299 300 302 306 309 310 309 305 296 283 272 264 258 253 249 246 243 240 238 237 235 234 234 234 234 234 234 232 230 226 222 220 217 217 224 228 225 224 226 225 224 223
320 321 321 322 324 324 324 323 321 317 314 313 314 312 309 308 306 303 299 295 293 294 295 297 298 301 303 303 297 286 276 267 260 255 251 247 244 241 239 238 236 235 235 235 234 234 233 231 229 224 218 216 214 214 220 227 226 224 225 224 222 221
317 318 319 320 321 323 323 322 320 317 313 312 312 310 306 303 302 301 298 295 292 289 288 289 289 291 294 297 294 288 280 271 264 258 253 250 246 243 241 239 238 237 236 236 235 234 233 230 227 224 219 214 212 210 215 224 225 223 224 223 220 220
313 315 316 317 319 320 319 319 318 316 313 310 308 306 303 300 297 296 295 294 291 287 283 282 282 283 286 288 289 288 282 275 268 260 254 251 247 244 242 240 239 237 236 236 235 234 233 230 227 224 219 214 210 206 208 218 221 219 220 220 215 215
310 310 312 314 316 316 315 315 315 315 312 309 305 303 301 298 295 292 290 290 289 285 280 278 277 278 279 281 282 282 281 277 271 264 260 257 252 248 246 243 241 240 239 237 236 234 231 229 227 225 222 217 213 207 205 211 214 212 214 215 211 210
308 308 308 310 312 312 311 312 312 312 311 307 302 300 298 296 294 291 287 285 286 283 279 275 273 273 274 275 276 277 277 276 274 269 265 261 256 253 250 248 247 246 243 241 240 238 236 233 231 229 224 220 216 211 207 207 209 209 213 217 215 214
305 305 305 307 308 307 307 308 308 308 308 304 300 297 295 294 293 291 286 283 283 282 278 273 270 270 270 271 272 273 273 272 271 268 265 262 258 255 252 249 248 248 245 243 243 243 243 244 241 235 226 219 216 213 210 209 212 215 217 219 219 218
303 302 303 304 305 304 303 304 304 304 304 302 299 296 294 293 293 290 285 282 280 280 278 273 269 267 268 269 270 270 270 268 267 266 264 261 258 256 252 249 248 247 246 245 244 243 243 243 240 235 227 220 215 213 211 210 214 216 217 218 218 217
301 301 302 302 302 301 301 301 301 301 300 298 297 296 293 291 290 286 282 280 278 278 278 275 270 267 266 266 267 268 266 264 264 263 262 259 257 255 253 250 247 246 245 245 244 242 242 240 237 234 229 222 215 212 209 209 212 213 214 216 217 215
299 299 299 300 300 300 300 299 298 298 298 297 297 296 291 287 284 282 280 279 278 279 280 277 272 269 266 265 265 266 264 262 261 260 260 258 255 253 251 248 246 245 244 244 244 242 241 240 238 235 230 222 214 209 206 207 210 211 212 215 215 211
298 298 298 299 299 298 297 296 296 297 297 297 297 296 290 284 281 279 277 276 277 280 281 278 275 272 268 266 265 265 264 262 261 259 258 255 250 248 247 246 245 242 241 242 243 242 240 238 235 234 230 220 212 207 204 205 206 206 209 214 214 210
298 298 298 298 298 297 295 293 294 296 297 298 298 294 285 279 278 277 274 273 273 275 275 275 276 275 272 269 266 264 263 262 259 257 254 252 249 247 245 245 243 240 238 238 238 238 238 235 232 229 223 216 208 202 200 200 196 194 200 208 210 208
299 298 298 298 298 297 294 292 294 298 300 299 294 284 276 275 277 278 276 273 273 275 276 276 276 274 273 271 268 265 263 261 258 255 252 249 248 245 244 243 242 238 235 233 233 233 233 232 228 221 213 209 204 199 197 196 193 192 200 206 204 202
Height
1391 1390 1391 1393 1394 1396 1396 1397 1398 1397 1397 1396 1396 1397 1397 1399 1400 1401 1401 1400 1400 1401 1402 1403 1404 1405 1407 1408 1410 1411 1413 1415 1417 1419 1422 1424 1425 1427 1429 1432 1434 1438 1440 1443 1445 1447 1449 1451 1453 1455 1457 1459 1460 1462 1464 1465 1467 1468 1470 1471 1472 1473
1394 1393 1394 1394 1395 1396 1397 1397 1398 1397 1397 1396 1395 1395 1395 1397 1398 1398 1398 1398 1398 1398 1399 1400 1401 1402 1403 1404 1405 1406 1407 1410 1412 1414 1416 1418 1420 1422 1424 1427 1429 1432 1435 1438 1440 1442 1445 1447 1449 1451 1452 1454 1456 1458 1459 1461 1462 1464 1465 1467 1468 1469
1396 1395 1395 1395 1396 1396 1397 1397 1397 1396 1396 1395 1394 1394 1393 1394 1394 1394 1394 1394 1394 1394 1395 1396 1397 1399 1400 1401 1402 1403 1404 1406 1408 1410 1412 1413 1415 1417 1419 1422 1424 1427 1430 1433 1436 1438 1440 1442 1444 1446 1448 1450 1452 1454 1455 1456 1458 1460 1461 1463 1464 1465
1396 1396 1396 1395 1396 1396 1396 1397 1396 1395 1394 1393 1392 1392 1391 1391 1391 1391 1390 1390 1390 1390 1391 1392 1393 1395 1396 1397 1398 1399 1400 1402 1404 1406 1407 1408 1410 1412 1414 1417 1419 1422 1425 1428 1431 1434 1436 1438 1440 1442 1444 1446 1448 1449 1451 1452 1454 1456 1457 1458 1460 1462
1396 1396 1396 1395 1394 1394 1395 1395 1394 1392 1391 1390 1389 1388 1388 1388 1388 1388 1388 1387 1386 1386 1387 1388 1388 1389 1391 1392 1393 1394 1395 1397 1399 1401 1402 1404 1406 1408 1410 1412 1414 1417 1419 1423 1426 1429 1432 1433 1435 1437 1439 1441 1443 1445 1447 1448 1450 1452 1453 1454 1456 1458
1394 1395 1394 1393 1393 1392 1392 1392 1391 1389 1388 1386 1386 1385 1385 1385 1385 1385 1385 1384 1383 1383 1383 1383 1383 1384 1385 1386 1388 1389 1390 1392 1394 1395 1397 1400 1402 1403 1406 1408 1409 1412 1414 1417 1420 1423 1426 1428 1430 1432 1434 1436 1438 1440 1443 1445 1446 1448 1450 1451 1452 1453
1391 1391 1390 1390 1390 1389 1389 1388 1387 1386 1385 1384 1383 1382 1382 1382 1382 1382 1381 1380 1380 1380 1379 1378 1378 1379 1379 1381 1383 1384 1386 1387 1388 1390 1392 1394 1397 1399 1401 1402 1404 1406 1408 1410 1413 1416 1420 1423 1425 1427 1429 1432 1434 1437 1439 1441 1443 1445 1446 1447 1448 1449
1388 1387 1386 1385 1385 1385 1385 1385 1384 1383 1382 1381 1379 1378 1378 1378 1378 1378 1377 1377 1376 1375 1374 1373 1373 1373 1374 1376 1377 1379 1381 1382 1383 1384 1386 1389 1391 1393 1395 1397 1398 1401 1403 1405 1408 1411 1414 1417 1420 1422 1424 1427 1430 1432 1434 1436 1439 1441 1442 1443 1444 1446
1389 1387 1385 1383 1382 1381 1381 1381 1381 1380 1378 1377 1375 1374 1373 1373 1373 1372 1372 1372 1370 1369 1368 1368 1367 1368 1368 1370 1371 1373 1375 1376 1378 1379 1381 1383 1385 1387 1389 1391 1393 1396 1398 1401 1404 1406 1409 1412 1414 1417 1420 1423 1425 1427 1429 1431 1433 1436 1437 1439 1440 1442
1391 1389 1386 1384 1382 1380 1379 1377 1376 1375 1374 1373 1372 1370 1368 1368 1367 1367 1366 1365 1364 1362 1362 1362 1363 1363 1363 1363 1365 1367 1368 1370 1372 1374 1376 1377 1379 1381 1383 1386 1389 1391 1394 1396 1399 1402 1405 1407 1410 1413 1415 1418 1420 1422 1424 1426 1428 1430 1432 1434 1436 1439
1392 1390 1388 1385 1383 1380 1378 1376 1374 1372 1371 1369 1367 1366 1364 1363 1363 1362 1361 1359 1357 1355 1356 1357 1358 1358 1358 1358 1358 1360 1362 1364 1366 1368 1370 1371 1373 1375 1378 1381 1384 1386 1389 1391 1394 1397 1400 1402 1405 1407 1410 1413 1415 1417 1419 1421 1423 1426 1428 1430 1432 1434
1393 1391 1387 1385 1383 1380 1378 1375 1372 1370 1368 1365 1363 1361 1359 1359 1357 1356 1355 1353 1351 1351 1352 1352 1352 1352 1352 1352 1353 1354 1356 1358 1360 1362 1364 1365 1367 1370 1372 1375 1378 1380 1383 1386 1388 1391 1393 1395 1398 1401 1405 1408 1410 1412 1415 1417 1419 1422 1424 1426 1428 1430
1393 1390 1388 1386 1383 1381 1378 1375 1372 1369 1365 1362 1359 1356 1354 1353 1351 1350 1348 1347 1347 1348 1348 1347 1346 1345 1345 1345 1347 1348 1350 1352 1354 1355 1357 1359 1361 1363 1366 1369 1371 1374 1376 1379 1382 1384 1386 1389 1392 1396 1399 1402 1404 1407 1410 1412 1415 1417 1419 1421 1423 1425
1392 1390 1388 1386 1383 1381 1378 1375 1371 1368 1364 1360 1356 1352 1350 1348 1346 1345 1343 1341 1342 1342 1342 1342 1341 1340 1339 1339 1341 1342 1344 1345 1347 1349 1350 1352 1354 1357 1359 1362 1364 1367 1370 1373 1375 1378 1380 1384 1387 1391 1394 1396 1399 1402 1405 1407 1409 1411 1413 1416 1418 1420
1393 1390 1388 1385 1383 1381 1379 1376 1372 1367 1362 1358 1354 1349 1346 1343 1341 1340 1338 1337 1336 1336 1336 1336 1336 1335 1334 1334 1335 1336 1338 1339 1340 1342 1343 1345 1348 1351 1353 1355 1358 1361 1364 1366 1368 1371 1375 1378 1382 1386 1389 1391 1394 1397 1399 1402 1404 1406 1408 1411 1413 1416
1392 1389 1387 1384 1382 1379 1376 1373 1369 1364 1359 1356 1352 1347 1344 1341 1338 1336 1335 1333 1333 1332 1331 1330 1330 1330 1330 1330 1330 1331 1332 1333 1335 1336 1338 1340 1343 1344 1347 1349 1352 1355 1357 1359 1362 1366 1369 1372 1376 1380 1384 1386 1388 1391 1393 1396 1399 1401 1404 1406 1409 1411
1390 1387 1385 1382 1379 1376 1373 1369 1365 1360 1356 1353 1350 1346 1343 1340 1337 1334 1332 1331 1330 1330 1329 1327 1326 1326 1326 1327 1327 1327 1328 1329 1331 1332 1334 1336 1337 1339 1342 1344 1347 1349 1352 1354 1357 1360 1363 1366 1371 1376 1379 1381 1383 1385 1387 1390 1393 1396 1399 1401 1404 1407
1389 1386 1383 1380 1377 1374 1370 1367 1363 1359 1354 1352 1350 1346 1343 1340 1337 1334 1331 1329 1328 1327 1327 1325 1324 1324 1324 1325 1325 1324 1325 1326 1327 1329 1330 1331 1333 1336 1338 1340 1342 1345 1347 1349 1352 1355 1357 1361 1366 1371 1374 1376 1378 1379 1381 1384 1387 1390 1393 1397 1400 1403
1387 1385 1382 1379 1376 1372 1368 1364 1361 1357 1353 1351 1348 1345 1342 1340 1337 1334 1332 1329 1327 1326 1325 1324 1323 1321 1321 1322 1322 1322 1322 1323 1324 1324 1325 1327 1328 1330 1333 1335 1338 1340 1342 1345 1347 1349 1351 1355 1361 1366 1368 1372 1374 1373 1375 1379 1382 1385 1388 1392 1396 1399
1383 1381 1380 1377 1374 1371 1367 1363 1359 1355 1351 1349 1347 1344 1341 1339 1336 1334 1332 1329 1327 1326 1324 1323 1321 1319 1319 1318 1318 1319 1320 1321 1321 1321 1321 1322 1323 1326 1328 1331 1334 1336 1338 1340 1342 1345 1348 1352 1357 1361 1363 1366 1368 1367 1370 1375 1378 1380 1384 1387 1391 1394
1380 1378 1377 1375 1372 1369 1365 1360 1356 1352 1349 1347 1345 1343 1341 1338 1336 1333 1331 1329 1327 1325 1323 1322 1319 1317 1317 1315 1315 1316 1317 1318 1319 1319 1319 1319 1320 1322 1325 1328 1330 1331 1334 1336 1339 1342 1346 1348 1353 1357 1358 1361 1362 1361 1364 1371 1373 1375 1378 1382 1385 1389
1378 1375 1373 1371 1369 1366 1363 1359 1354 1350 1347 1345 1343 1341 1340 1338 1335 1333 1331 1328 1326 1324 1321 1319 1317 1315 1314 1313 1313 1313 1314 1314 1316 1316 1317 1317 1318 1319 1322 1323 1325 1327 1330 1333 1335 1338 1341 1344 1348 1352 1354 1356 1357 1356 1359 1365 1368 1369 1373 1376 1379 1383
1375 1373 1371 1370 1368 1365 1362 1357 1352 1348 1345 1343 1341 1340 1339 1337 1334 1332 1330 1327 1325 1322 1319 1317 1315 1313 1311 1310 1310 1311 1311 1311 1312 1313 1314 1315 1315 1316 1318 1319 1321 1323 1325 1328 1330 1334 1337 1340 1345 1348 1351 1353 1353 1352 1354 1360 1364 1366 1369 1372 1374 1377
1370 1369 1367 1367 1366 1364 1360 1355 1349 1345 1343 1341 1339 1338 1337 1335 1332 1330 1328 1325 1323 1320 1317 1315 1313 1311 1309 1308 1308 1308 1308 1309 1310 1311 1312 1313 1313 1314 1315 1316 1317 1319 1320 1323 1326 1329 1333 1336 1341 1345 1347 1348 1349 1348 1348 1354 1362 1366 1367 1368 1370 1372
1366 1364 1363 1363 1363 1361 1357 1352 1346 1342 1340 1338 1337 1336 1334 1332 1329 1327 1325 1323 1321 1318 1316 1313 1311 1310 1308 1306 1306 1306 1306 1307 1307 1308 1309 1311 1312 1312 1313 1313 1314 1315 1316 1319 1322 1325 1329 1333 1337 1341 1344 1345 1347 1346 1345 1349 1357 1362 1364 1365 1366 1368
1363 1361 1360 1359 1359 1356 1353 1348 1343 1338 1336 1335 1335 1333 1331 1328 1326 1324 1322 1320 1319 1317 1315 1312 1310 1308 1306 1304 1303 1303 1303 1304 1304 1305 1306 1308 1309 1309 1310 1310 1310 1311 1312 1314 1318 1321 1324 1329 1334 1338 1342 1343 1345 1346 1343 1344 1351 1357 1359 1362 1363 1365
1360 1357 1354 1354 1353 1351 1348 1345 1340 1335 1331 1331 1331 1329 1326 1324 1322 1320 1318 1317 1315 1314 1312 1310 1308 1305 1303 1302 1301 1300 1300 1300 1301 1303 1303 1304 1305 1305 1306 1306 1306 1308 1309 1311 1313 1316 1319 1324 1329 1333 1338 1340 1343 1345 1343 1343 1347 1352 1355 1357 1360 1362
1356 1352 1348 1346 1345 1345 1343 1341 1338 1333 1329 1327 1326 1325 1323 1320 1317 1315 1314 1312 1311 1310 1308 1306 1304 1303 1301 1299 1298 1297 1297 1297 1298 1299 1300 1301 1301 1301 1301 1301 1302 1304 1306 1307 1309 1312 1315 1319 1323 1327 1331 1335 1339 1342 1342 1342 1345 1349 1351 1354 1358 1359
1351 1348 1344 1340 1338 1337 1335 1334 1333 1331 1327 1324 1322 1320 1318 1316 1313 1310 1308 1307 1305 1304 1303 1301 1300 1299 1298 1296 1295 1294 1293 1293 1294 1295 1295 1296 1297 1297 1297 1297 1297 1299 1301 1302 1304 1307 1310 1314 1317 1320 1323 1327 1332 1337 1339 1340 1342 1345 1347 1349 1353 1355
1345 1343 1340 1336 1333 1331 1328 1326 1326 1325 1323 1321 1318 1315 1312 1310 1308 1306 1303 1300 1299 1298 1297 1296 1295 1295 1294 1292 1291 1290 1289 1289 1290 1290 1291 1291 1293 1293 1293 1293 1293 1294 1296 1298 1300 1303 1305 1308 1310 1311 1314 1318 1323 1328 1333 1336 1338 1340 1342 1345 1349 1352
1339 1336 1333 1330 1328 1325 1322 1319 1318 1318 1317 1315 1313 1310 1306 1303 1302 1300 1297 1294 1292 1290 1290 1290 1290 1289 1289 1287 1286 1285 1285 1285 1285 1286 1286 1287 1289 1290 1291 1291 1291 1292 1294 1296 1297 1299 1300 1302 1303 1305 1309 1313 1317 1322 1326 1329 1332 1336 1340 1343 1347 1349
1333 1330 1326 1323 1321 1319 1316 1313 1312 1311 1310 1309 1306 1304 1300 1297 1294 1292 1289 1287 1285 1283 1283 1284 1284 1284 1283 1282 1281 1280 1280 1280 1280 1281 1282 1283 1284 1286 1288 1289 1290 1291 1293 1294 1294 1295 1297 1299 1301 1304 1308 1311 1315 1319 1322 1326 1329 1333 1337 1340 1343 1345
1326 1323 1319 1315 1314 1311 1308 1307 1305 1304 1302 1301 1299 1297 1294 1291 1287 1283 1281 1280 1278 1276 1276 1277 1277 1277 1277 1276 1275 1275 1275 1275 1275 1276 1277 1278 1279 1281 1283 1285 1286 1288 1289 1291 1292 1294 1295 1297 1299 1303 1306 1310 1313 1316 1320 1323 1325 1328 1332 1334 1337 1340
1318 1315 1311 1308 1305 1302 1300 1298 1297 1296 1294 1292 1291 1289 1287 1284 1281 1276 1272 1271 1271 1270 1270 1270 1270 1270 1270 1269 1269 1269 1269 1269 1270 1270 1271 1273 1274 1276 1278 1280 1282 1283 1284 1286 1289 1291 1292 1293 1295 1299 1304 1308 1311 1314 1317 1320 1322 1325 1328 1330 1333 1336
1311 1306 1303 1300 1296 1293 1290 1286 1285 1287 1286 1283 1282 1282 1279 1276 1273 1269 1265 1264 1264 1264 1264 1264 1264 1264 1263 1262 1262 1262 1263 1263 1264 1264 1266 1268 1270 1272 1273 1275 1277 1278 1280 1282 1284 1286 1288 1290 1292 1296 1300 1304 1308 1312 1315 1317 1320 1323 1325 1326 1329 1333
1302 1298 1295 1292 1289 1284 1280 1274 1273 1276 1276 1275 1273 1272 1270 1267 1265 1262 1259 1257 1258 1259 1259 1259 1258 1258 1257 1257 1256 1256 1256 1257 1258 1260 1262 1263 1265 1267 1268 1270 1272 1274 1276 1278 1279 1281 1284 1286 1289 1292 1296 1300 1304 1308 1312 1314 1318 1322 1323 1324 1327 1330
1293 1289 1287 1284 1281 1277 1271 1265 1263 1265 1266 1266 1265 1263 1261 1259 1257 1255 1252 1250 1252 1254 1254 1253 1253 1252 1251 1250 1250 1249 1250 1252 1253 1255 1257 1258 1260 1262 1263 1265 1268 1270 1272 1274 1275 1277 1279 1283 1286 1289 1293 1296 1301 1304 1308 1310 1313 1316 1317 1320 1325 1327
1284 1280 1278 1276 1272 1268 1262 1257 1257 1258 1258 1258 1258 1257 1254 1252 1250 1248 1246 1244 1245 1247 1247 1247 1247 1246 1245 1244 1244 1244 1245 1246 1248 1250 1251 1253 1256 1257 1259 1261 1264 1266 1270 1272 1273 1274 1276 1279 1283 1287 1290 1294 1297 1300 1303 1304 1305 1308 1311 1316 1320 1323